Location: Unspecified
(0.0000°N, 0.0000°E)
Time: 12:18:22
(UTC+00:00)

Tiangong - Pass Details

Date: 09 February 2026
Orbit: 386 x 391 km, 41.5° (Epoch: 15 February)

Event Time Altitude Azimuth Distance (km) Brightness Sun altitude
Exits shadow 04:44:19 20° 181° (S) 966 0.0 -21.7°
Drops below altitude 10° 04:45:45 10° 162° (SSE) 1,418 1.1 -21.4°
Sets 04:48:00 0° 150° (SSE) 2,276 2.5 -20.8°
